User: anonymous   Login
Location: Doschendorf
(50.0069°N, 11.0602°E)
Time: 00:08:52
(UTC+00:00)
Language:

Cosmos 1980 Rocket - Orbit

View from above orbital plane
View from above orbital plane
View from above satellite
View from above satellite

Ground track
Ground track

The orbit data is extracted from the following two-line orbital elements,

1 19650U 88102B   20023.51533097  .00000063  00000-0  56194-4 0  9998
2 19650  70.9978 176.7838 0014432 185.5192 174.5774 14.15787339610503
Epoch (UTC): 23 January 2020 12:22:04
Eccentricity: 0.0014432
inclination: 70.9978°
perigee height: 829 km
apogee height: 850 km
right ascension of ascending node: 176.7838°
argument of perigee: 185.5192°
revolutions per day: 14.15787339
mean anomaly at epoch: 174.5774°
orbit number at epoch: 61050

The dashed part of the orbit path shows where the satellite is in the earth's shadow,  

DLR